記事タイトル:Comet C/2001 Q4 (NEAT) 

最新の情報は「更新」や「再読み込み」ボタンを押してリロードしてご覧ください。

書き込み欄へ  ヘルプ
お名前: 佐藤 裕久   
新たな観測が加えられ、8月24日〜9月10日の38個の観測から次のように放物線軌道が得られた。
近日点通過日は2004年5月になる。ただ、数週間ほど不確実。

     T = 2004 May  25.993 TT          Peri. =   0.659
                                      Node  = 210.670   2000.0
     q = 1.00055 AU                   Incl. = 100.145

2001 TT     R. A. (2000) Decl.   Delta     r    Elong. Phase    m1
Sept. 8     2 42.33   -26 13.3   9.425  10.032  124.7    4.7   17.4
     18     2 39.87   -27 04.5   9.276   9.959  130.6    4.4   17.3
     28     2 36.70   -27 53.8   9.149   9.886  135.3    4.1   17.3
Oct.  8     2 32.93   -28 39.3   9.046   9.813  138.1    3.9   17.2
     18     2 28.67   -29 19.5   8.968   9.739  138.7    3.9   17.2

2004年5月から6月にかけて双眼鏡的な明るさになる模様。(肉眼的になる可能性もある)

(IAUC 7711)

最大1等級か!
[2001年9月11日 21時39分57秒]

この記事への返信をどうぞ。
氏名
E-mail URL



記事一覧に戻る